Antigo, WI

10:49 PM CDT on April 24, 2017 (GMT -0500)
Langlade County

Weather History for KAIG - March, 2014

Change the Weather History Date:

Wednesday, March 19, 2014

  Actual Average Record
Temperature  
Mean Temperature 30 °F -  
Max Temperature 34 °F 39 °F 75 °F (2012)
Min Temperature 27 °F 19 °F -12 °F (1989)
Degree Days  
Heating Degree Days 34    
Moisture  
Dew Point 27 °F    
Average Humidity 88    
Maximum Humidity 97    
Minimum Humidity 79    
Precipitation  
Precipitation 1.83 in - - ()
Sea Level Pressure  
Sea Level Pressure 29.71 in    
Wind  
Wind Speed 12 mph (NNW)    
Max Wind Speed 18 mph    
Max Gust Speed 25 mph    
Visibility 6 miles    
Events Snow    
Averages and records for this station are not official NWS values.
T = Trace of Precipitation, MM = Missing Value Source: NWS Daily Summary

Daily Weather History Graph

Daily Weather History Graph

Search for Another Location

Airport or City:

Trip Planner

Search our weather history database for the weather conditions in past years. The results will help you decide how hot, cold, wet, or windy it might be!

Date:

Astronomy

Mar. 19, 2014 Rise Set
Actual Time 7:01 AM CDT 7:07 PM CDT
Civil Twilight 6:32 AM CDT 7:37 PM CDT
Nautical Twilight 5:57 AM CDT 8:11 PM CDT
Astronomical Twilight 5:22 AM CDT 8:46 PM CDT
Moon 10:36 PM CDT (3/19) 8:18 AM CDT (3/19)
Length of Visible Light 13h 04m
Length of Day
12h 06m
Waning Gibbous, 91% of the Moon is Illuminated
Mar 19
Waning Gibbous
Mar 23
Last Quarter
Mar 30
New
Apr 7
First Quarter
Apr 15
Full

Hourly Weather History & Observations

Time (CDT) Temp. Windchill Dew Point Humidity Pressure Visibility Wind Dir Wind Speed Gust Speed Precip Events Conditions
12:15 AM 29.3 °F 19.1 °F 26.1 °F 88% 29.76 in 10.0 mi East 12.7 mph 20.7 mph N/A   Overcast
12:35 AM 29.1 °F 17.9 °F 25.7 °F 87% 29.76 in 10.0 mi East 15.0 mph - N/A   Overcast
12:55 AM 28.9 °F 19.2 °F 25.7 °F 88% 29.74 in 10.0 mi East 11.5 mph - N/A   Overcast
1:15 AM 28.9 °F 16.5 °F 26.2 °F 90% 29.73 in 7.0 mi ESE 18.4 mph - 0.01 in   Overcast
1:35 AM 28.9 °F 17.3 °F 26.2 °F 90% 29.71 in 7.0 mi East 16.1 mph - 0.01 in   Overcast
1:55 AM 28.9 °F 17.3 °F 26.4 °F 90% 29.71 in 7.0 mi East 16.1 mph - 0.01 in   Overcast
2:15 AM 28.8 °F 17.5 °F 27.0 °F 93% 29.71 in 2.5 mi ESE 15.0 mph - N/A Snow Light Snow
2:35 AM 28.4 °F 20.4 °F 27.1 °F 95% 29.71 in 1.5 mi East 8.1 mph 12.7 mph N/A Snow Light Snow
2:55 AM 28.4 °F 20.4 °F 27.3 °F 96% 29.70 in 2.5 mi NE 8.1 mph - N/A Snow Light Snow
3:15 AM 28.4 °F 19.7 °F 27.5 °F 96% 29.69 in 2.0 mi NNE 9.2 mph - N/A Snow Light Snow
3:35 AM 28.0 °F 19.3 °F 27.3 °F 97% 29.68 in 1.5 mi NNE 9.2 mph - N/A Snow Light Snow
3:55 AM 28.0 °F 18.6 °F 27.1 °F 96% 29.67 in 4.0 mi NE 10.4 mph - 0.01 in Snow Light Snow
4:15 AM 27.9 °F 19.1 °F 27.1 °F 97% 29.66 in 3.0 mi NE 9.2 mph - 0.01 in Snow Light Snow
4:35 AM 27.9 °F 19.1 °F 27.1 °F 97% 29.65 in 3.0 mi NE 9.2 mph - 0.03 in Snow Light Snow
4:55 AM 27.9 °F 19.1 °F 26.6 °F 95% 29.64 in 5.0 mi NE 9.2 mph - 0.05 in Snow Light Snow
5:15 AM 27.9 °F 19.8 °F 26.4 °F 94% 29.64 in 7.0 mi NE 8.1 mph - 0.03 in   Overcast
5:35 AM 27.9 °F 19.8 °F 26.4 °F 94% 29.64 in 7.0 mi NE 8.1 mph - 0.05 in   Overcast
5:55 AM 28.0 °F 20.0 °F 26.4 °F 94% 29.64 in 7.0 mi NNE 8.1 mph - 0.06 in   Overcast
6:15 AM 28.0 °F 20.8 °F 26.4 °F 94% 29.64 in 7.0 mi NNE 6.9 mph - 0.01 in Snow Light Snow
6:35 AM 28.0 °F 20.8 °F 26.6 °F 94% 29.64 in 4.0 mi NNE 6.9 mph - 0.03 in Snow Light Snow
6:55 AM 27.9 °F 19.8 °F 26.6 °F 95% 29.64 in 4.0 mi North 8.1 mph - 0.06 in Snow Light Snow
7:15 AM 27.9 °F 19.8 °F 27.0 °F 96% 29.64 in 3.0 mi North 8.1 mph - 0.02 in   Overcast
7:35 AM 27.9 °F 19.1 °F 27.0 °F 96% 29.64 in 2.5 mi North 9.2 mph - 0.04 in   Overcast
7:55 AM 28.0 °F 20.0 °F 27.1 °F 96% 29.64 in 1.2 mi NNW 8.1 mph - 0.06 in Snow Light Snow
8:15 AM 28.0 °F 19.3 °F 27.0 °F 96% 29.64 in 1.2 mi NNW 9.2 mph - 0.01 in Snow Light Snow
8:35 AM 28.0 °F 18.6 °F 26.6 °F 94% 29.64 in 1.8 mi North 10.4 mph - 0.04 in Snow Light Snow
8:55 AM 28.4 °F 19.1 °F 26.6 °F 93% 29.64 in 3.0 mi North 10.4 mph - 0.09 in   Overcast
9:15 AM 28.9 °F 19.8 °F 26.6 °F 91% 29.64 in 3.0 mi North 10.4 mph - 0.04 in Snow Light Snow
9:35 AM 29.3 °F 20.2 °F 26.6 °F 90% 29.64 in 4.0 mi North 10.4 mph - N/A   Overcast
9:55 AM 30.2 °F 21.3 °F 27.1 °F 88% 29.64 in 4.0 mi North 10.4 mph - 0.15 in   Overcast
10:15 AM 30.6 °F 22.4 °F 27.3 °F 88% 29.64 in 5.0 mi North 9.2 mph - 0.03 in   Overcast
10:35 AM 31.6 °F 23.1 °F 27.9 °F 86% 29.64 in 7.0 mi NNW 10.4 mph - 0.06 in   Mostly Cloudy
10:55 AM 32.0 °F 23.0 °F 28.0 °F 85% 29.64 in 5.0 mi NNW 11.5 mph - 0.12 in   Overcast
11:15 AM 32.0 °F 23.6 °F 28.2 °F 86% 29.65 in 4.0 mi NNW 10.4 mph - 0.03 in Snow Light Snow
11:35 AM 32.4 °F 24.0 °F 28.9 °F 87% 29.65 in 4.0 mi NNW 10.4 mph - 0.06 in   Overcast
11:55 AM 32.9 °F 24.1 °F 29.3 °F 87% 29.65 in 2.5 mi NNW 11.5 mph - 0.10 in   Overcast
12:15 PM 33.8 °F 24.8 °F 29.7 °F 85% 29.65 in 4.0 mi NNW 12.7 mph - 0.04 in   Haze
12:35 PM 34.0 °F 26.0 °F 29.8 °F 85% 29.66 in 5.0 mi NW 10.4 mph - 0.04 in   Overcast
12:55 PM 34.2 °F 26.2 °F 29.3 °F 82% 29.65 in 10.0 mi NNW 10.4 mph 16.1 mph 0.04 in   Overcast
1:15 PM 34.7 °F 26.4 °F 29.3 °F 81% 29.66 in 10.0 mi NNW 11.5 mph - N/A   Overcast
1:35 PM 34.7 °F 26.4 °F 29.1 °F 80% 29.66 in 10.0 mi NW 11.5 mph - N/A   Overcast
1:55 PM 34.7 °F 26.9 °F 28.9 °F 79% 29.65 in 10.0 mi NNW 10.4 mph - 0.12 in   Overcast
2:15 PM 34.7 °F 26.9 °F 28.9 °F 79% 29.66 in 10.0 mi NW 10.4 mph - 0.13 in   Overcast
2:35 PM 34.2 °F 25.7 °F 29.3 °F 82% 29.66 in 7.0 mi NNW 11.5 mph - 0.25 in   Overcast
2:55 PM 34.0 °F 26.0 °F 29.3 °F 83% 29.67 in 10.0 mi NW 10.4 mph 16.1 mph 0.37 in   Overcast
3:15 PM 33.8 °F 25.3 °F 28.2 °F 80% 29.68 in 10.0 mi NW 11.5 mph - 0.07 in   Overcast
3:35 PM 32.5 °F 22.3 °F 29.7 °F 89% 29.69 in 2.5 mi WNW 15.0 mph 19.6 mph 0.11 in Snow Light Snow
3:55 PM 32.0 °F 21.2 °F 28.6 °F 87% 29.69 in 2.5 mi WNW 16.1 mph 21.9 mph 0.13 in Snow Light Snow
4:15 PM 31.8 °F 21.4 °F 27.1 °F 83% 29.70 in 5.0 mi NW 15.0 mph - 0.01 in Snow Light Snow
4:35 PM 31.6 °F 21.6 °F 26.8 °F 82% 29.71 in 7.0 mi NW 13.8 mph 18.4 mph 0.02 in Snow Light Snow
4:55 PM 30.7 °F 19.6 °F 26.8 °F 85% 29.72 in 2.0 mi NW 16.1 mph 21.9 mph 0.03 in Snow Light Snow
5:15 PM 30.2 °F 20.2 °F 26.6 °F 86% 29.73 in 5.0 mi NW 12.7 mph - N/A Snow Light Snow
5:35 PM 29.3 °F 18.6 °F 25.7 °F 86% 29.74 in 2.5 mi NW 13.8 mph - 0.11 in Snow Light Snow
5:55 PM 29.1 °F 18.4 °F 24.8 °F 84% 29.75 in 4.0 mi NW 13.8 mph 21.9 mph 0.19 in Snow Light Snow
6:15 PM 29.1 °F 18.4 °F 25.2 °F 85% 29.76 in 5.0 mi WNW 13.8 mph 18.4 mph N/A Snow Light Snow
6:35 PM 28.8 °F 17.5 °F 24.3 °F 83% 29.78 in 5.0 mi NW 15.0 mph 21.9 mph N/A Snow Light Snow
6:55 PM 28.8 °F 18.4 °F 23.9 °F 82% 29.78 in 10.0 mi NW 12.7 mph 20.7 mph 0.05 in   Overcast
7:15 PM 28.4 °F 18.5 °F 24.6 °F 86% 29.79 in 5.0 mi NW 11.5 mph - 0.01 in Snow Light Snow
7:35 PM 28.2 °F 15.9 °F 23.7 °F 83% 29.80 in 10.0 mi NW 17.3 mph 25.3 mph 0.01 in   Overcast
7:55 PM 28.0 °F 18.1 °F 23.4 °F 83% 29.80 in 7.0 mi NW 11.5 mph - 0.07 in Snow Light Snow
8:15 PM 28.0 °F 17.5 °F 23.4 °F 83% 29.81 in 7.0 mi NW 12.7 mph 23.0 mph 0.02 in Snow Light Snow
8:35 PM 28.0 °F 18.6 °F 23.9 °F 84% 29.81 in 10.0 mi NW 10.4 mph 16.1 mph 0.03 in Snow Light Snow
8:55 PM 28.0 °F 18.6 °F 24.1 °F 85% 29.82 in 7.0 mi WNW 10.4 mph - 0.04 in Snow Light Snow
9:15 PM 28.0 °F 19.3 °F 23.9 °F 84% 29.82 in 10.0 mi NW 9.2 mph - 0.03 in Snow Light Snow
9:35 PM 28.0 °F 18.6 °F 23.9 °F 84% 29.82 in 7.0 mi WNW 10.4 mph - 0.05 in Snow Light Snow
9:55 PM 28.4 °F 17.5 °F 24.1 °F 84% 29.83 in 10.0 mi WNW 13.8 mph 19.6 mph 0.07 in Snow Light Snow
10:15 PM 28.4 °F 18.0 °F 23.9 °F 83% 29.83 in 10.0 mi WNW 12.7 mph - N/A   Overcast
10:35 PM 28.4 °F 18.0 °F 23.9 °F 83% 29.83 in 10.0 mi WNW 12.7 mph - 0.01 in Snow Light Snow
10:55 PM 28.4 °F 17.0 °F 23.7 °F 83% 29.83 in 10.0 mi NW 15.0 mph 24.2 mph 0.01 in   Overcast
11:15 PM 28.4 °F 19.1 °F 23.7 °F 83% 29.84 in 10.0 mi NW 10.4 mph - N/A   Overcast
11:35 PM 28.4 °F 18.5 °F 23.4 °F 81% 29.84 in 10.0 mi NW 11.5 mph 18.4 mph N/A   Overcast
11:55 PM 28.2 °F 19.5 °F 23.0 °F 81% 29.84 in 10.0 mi NW 9.2 mph - N/A Snow Light Snow